| time (UTC) | temp F | wind direction | speed knots | gust knots | rain 1hr in | rain 24hr in | rain mn in | humidity % | barometer mb |
| 20260504191522 | 81 | 76 | 0.0 | 0.0 | 0.00 | 0.00 | 0.00 | 60 | 1014.3 |
| 20260504190017 | 80 | 129 | 0.0 | 0.0 | 0.00 | 0.00 | 0.00 | 59 | 1014.4 |
| 20260504184522 | 81 | 106 | 0.0 | 4.3 | 0.00 | 0.00 | 0.00 | 59 | 1014.4 |
| 20260504183009 | 80 | 101 | 0.0 | 0.0 | 0.00 | 0.00 | 0.00 | 58 | 1014.5 |
| 20260504181517 | 81 | 84 | 0.0 | 0.0 | 0.00 | 0.00 | 0.00 | 59 | 1014.7 |
| 20260504180020 | 80 | 103 | 0.0 | 5.2 | 0.00 | 0.00 | 0.00 | 57 | 1015.0 |
| 20260504174520 | 80 | 165 | 0.0 | 3.5 | 0.00 | 0.00 | 0.00 | 58 | 1015.1 |
| 20260504173024 | 80 | 105 | 1.7 | 7.0 | 0.00 | 0.00 | 0.00 | 56 | 1015.4 |
| 20260504171509 | 80 | 131 | 0.0 | 2.6 | 0.00 | 0.00 | 0.00 | 57 | 1015.4 |
| 20260504081529 | 55 | 109 | 0.0 | 0.0 | 0.00 | 0.02 | 0.00 | 79 | 1016.8 |
| 20260504050004 | 56 | 109 | 0.0 | 0.0 | 0.00 | 0.02 | 0.00 | 81 | 1018.7 |
| 20260504044509 | 56 | 109 | 0.0 | 0.0 | 0.00 | 0.02 | 0.02 | 80 | 1018.8 |
| 20260504043010 | 57 | 109 | 0.0 | 0.0 | 0.00 | 0.02 | 0.02 | 78 | 1018.9 |
| 20260504041513 | 58 | 109 | 0.0 | 0.0 | 0.00 | 0.02 | 0.02 | 77 | 1018.8 |
| 20260504040036 | 59 | 109 | 0.0 | 0.0 | 0.00 | 0.02 | 0.02 | 75 | 1018.7 |
| 20260504034504 | 60 | 109 | 0.0 | 0.0 | 0.00 | 0.02 | 0.02 | 74 | 1018.8 |
| 20260504033005 | 61 | 109 | 0.0 | 0.0 | 0.00 | 0.02 | 0.02 | 72 | 1018.8 |
| 20260504031513 | 62 | 109 | 0.0 | 0.0 | 0.00 | 0.02 | 0.02 | 70 | 1018.7 |
| 20260504030017 | 63 | 109 | 0.0 | 0.0 | 0.00 | 0.02 | 0.02 | 68 | 1018.6 |
| 20260504024523 | 63 | 109 | 0.0 | 0.0 | 0.00 | 0.02 | 0.02 | 67 | 1018.7 |
| 20260504023003 | 64 | 109 | 0.0 | 0.0 | 0.00 | 0.02 | 0.02 | 66 | 1018.6 |
| 20260504021505 | 65 | 109 | 0.0 | 0.0 | 0.00 | 0.02 | 0.02 | 64 | 1018.6 |
| 20260504020010 | 67 | 109 | 0.0 | 0.0 | 0.00 | 0.02 | 0.02 | 61 | 1018.6 |
| 20260504014522 | 67 | 116 | 0.0 | 0.9 | 0.00 | 0.02 | 0.02 | 61 | 1018.6 |
| 20260504013020 | 68 | 111 | 0.0 | 0.9 | 0.00 | 0.02 | 0.02 | 59 | 1018.6 |
| 20260504011506 | 69 | 124 | 0.0 | 1.7 | 0.00 | 0.02 | 0.02 | 57 | 1018.5 |
| 20260504010007 | 69 | 116 | 0.0 | 0.0 | 0.00 | 0.02 | 0.02 | 55 | 1018.5 |
| 20260504004514 | 70 | 116 | 0.0 | 1.7 | 0.00 | 0.02 | 0.02 | 53 | 1018.4 |
| 20260504003017 | 71 | 129 | 0.0 | 1.7 | 0.00 | 0.02 | 0.02 | 50 | 1018.4 |
| 20260504001522 | 72 | 134 | 0.0 | 1.7 | 0.00 | 0.02 | 0.02 | 49 | 1018.4 |
| 20260504000007 | 73 | 127 | 0.9 | 3.5 | 0.00 | 0.02 | 0.02 | 47 | 1018.4 |
| 20260503234508 | 74 | 120 | 0.0 | 4.3 | 0.00 | 0.02 | 0.02 | 46 | 1018.6 |
| 20260503233013 | 75 | 103 | 0.0 | 0.0 | 0.00 | 0.02 | 0.02 | 44 | 1018.7 |
| 20260503231519 | 76 | 113 | 0.0 | 0.0 | 0.00 | 0.02 | 0.02 | 44 | 1018.7 |
| 20260503230025 | 77 | 110 | 0.0 | 0.0 | 0.00 | 0.02 | 0.02 | 43 | 1018.8 |
| 20260503224508 | 77 | 120 | 0.0 | 3.5 | 0.00 | 0.02 | 0.02 | 42 | 1018.8 |
| 20260503223013 | 78 | 67 | 0.0 | 0.0 | 0.00 | 0.02 | 0.02 | 41 | 1019.2 |
| 20260503221517 | 78 | 100 | 0.0 | 6.1 | 0.00 | 0.02 | 0.02 | 41 | 1019.0 |
| 20260503220020 | 79 | 129 | 0.0 | 3.5 | 0.00 | 0.02 | 0.02 | 39 | 1019.1 |
| 20260503214525 | 79 | 92 | 0.0 | 0.0 | 0.00 | 0.02 | 0.02 | 39 | 1019.4 |
| 20260503213008 | 79 | 98 | 0.0 | 2.6 | 0.00 | 0.02 | 0.02 | 39 | 1019.5 |
| 20260503211515 | 80 | 75 | 0.0 | 2.6 | 0.00 | 0.02 | 0.02 | 35 | 1019.7 |
| 20260503210016 | 79 | 18 | 0.0 | 4.3 | 0.00 | 0.02 | 0.02 | 36 | 1019.9 |
| 20260503204527 | 80 | 39 | 0.0 | 0.0 | 0.00 | 0.02 | 0.02 | 36 | 1020.0 |
| 20260503203028 | 79 | 101 | 0.0 | 0.0 | 0.00 | 0.02 | 0.02 | 36 | 1020.3 |
| 20260503201511 | 80 | 42 | 0.0 | 3.5 | 0.00 | 0.02 | 0.02 | 34 | 1020.6 |
| 20260503200014 | 80 | 68 | 0.0 | 2.6 | 0.00 | 0.02 | 0.02 | 37 | 1020.8 |
| 20260503194523 | 80 | 41 | 0.0 | 3.5 | 0.00 | 0.02 | 0.02 | 36 | 1020.8 |
| 20260503193037 | 80 | 82 | 0.0 | 4.3 | 0.00 | 0.02 | 0.02 | 34 | 1021.2 |